Weather observations for the past three days for
Weatherford, Thomas P Stafford Airport
| Date | Time (cdt) | Wind (kph) | Vis. (km) | Weather | Sky Cond. | Temperature (ºC) | Relative Humidity | Wind Chill (°C) | Heat Index (°C) | Pressure | Precipitation (cm) | ||||||
|---|---|---|---|---|---|---|---|---|---|---|---|---|---|---|---|---|---|
| Air | Dwpt | 6 hour | altimeter (cm) | sea level (mb) | 1 hr | 3 hr | 6 hr | ||||||||||
| Max. | Min. | ||||||||||||||||
| 01 | 17:10 | S 17 | 16.09 | Partly Cloudy | SCT100 | 36.5 | 12.7 | 24% | 35 | 76.1 | 0.0 | ||||||
| 01 | 16:50 | S 22 | 16.09 | Fair | CLR | 36.1 | 12.5 | 24% | 35 | 76.1 | 0.0 | ||||||
| 01 | 16:30 | S 19 G 31 | 16.09 | Fair | CLR | 36.9 | 12.1 | 22% | 36 | 76.12 | 0.0 | ||||||
| 01 | 16:10 | S 24 | 16.09 | Partly Cloudy | SCT095 | 37.5 | 11.9 | 21% | 36 | 76.12 | 0.0 | ||||||
| 01 | 15:50 | S 28 G 35 | 16.09 | Partly Cloudy | SCT095 | 36.8 | 12.1 | 22% | 36 | 76.15 | 0.0 | ||||||
| 01 | 15:30 | S 17 G 35 | 6.44 | Mostly Cloudy with Haze | BKN095 | 37.3 | 11.9 | 22% | 36 | 76.17 | 0.0 | ||||||
| 01 | 15:10 | S 15 | 16.09 | Mostly Cloudy | BKN095 | 37.3 | 12 | 22% | 36 | 76.2 | 0.0 | ||||||
| 01 | 14:50 | S 11 | 16.09 | Partly Cloudy | SCT095 | 37.8 | 12.4 | 22% | 37 | 76.2 | 0.0 | ||||||
| 01 | 14:30 | S 20 G 31 | 16.09 | Mostly Cloudy | BKN095 | 36.6 | 12.7 | 24% | 36 | 76.23 | 0.0 | ||||||
| 01 | 14:10 | S 22 | 16.09 | Mostly Cloudy | BKN095 | 35.9 | 12.9 | 25% | 35 | 76.23 | 0.0 | ||||||
| 01 | 13:50 | SW 11 | 16.09 | Mostly Cloudy | BKN095 | 34.8 | 13.4 | 27% | 34 | 76.25 | 0.0 | ||||||
| 01 | 13:30 | S 20 | 16.09 | Mostly Cloudy | BKN085 | 37.2 | 13.8 | 25% | 37 | 76.25 | 0.0 | ||||||
| 01 | 13:10 | S 11 | 16.09 | Partly Cloudy | SCT085 | 35.2 | 13.3 | 27% | 34 | 76.3 | 0.0 | ||||||
| 01 | 12:50 | S 19 G 31 | 16.09 | Partly Cloudy | SCT085 | 35.9 | 13.7 | 36.3 | 23 | 26% | 35 | 76.33 | 0.0 | ||||
| 01 | 12:30 | S 19 G 37 | 16.09 | Partly Cloudy | SCT085 | 35.8 | 13.7 | 26% | 35 | 76.33 | 0.0 | ||||||
| 01 | 12:10 | S 20 G 30 | 16.09 | Fair | CLR | 35.7 | 14 | 27% | 35 | 76.33 | 0.0 | ||||||
| 01 | 11:50 | S 17 | 16.09 | Fair | CLR | 35.1 | 13.9 | 28% | 34 | 76.35 | 0.0 | ||||||
| 01 | 11:30 | S 19 G 28 | 16.09 | Fair | CLR | 34.3 | 15.2 | 32% | 34 | 76.35 | 0.0 | ||||||
| 01 | 11:10 | S 24 G 33 | 16.09 | Fair | CLR | 33.7 | 15.5 | 33% | 34 | 76.38 | 0.0 | ||||||
| 01 | 10:50 | S 20 | 16.09 | Fair | CLR | 33 | 15.7 | 35% | 33 | 76.35 | 0.0 | ||||||
| 01 | 10:30 | S 22 | 16.09 | Fair | CLR | 32.5 | 15.6 | 36% | 32 | 76.35 | 0.0 | ||||||
| 01 | 10:10 | S 24 G 30 | 16.09 | Fair | CLR | 31.9 | 15.6 | 37% | 32 | 76.38 | 0.0 | ||||||
| 01 | 09:50 | SW 19 G 28 | 16.09 | Fair | CLR | 31 | 15.3 | 39% | 31 | 76.38 | 0.0 | ||||||
| 01 | 09:30 | S 11 | 16.09 | Fair | CLR | 30.1 | 15.2 | 40% | 30 | 76.38 | 0.0 | ||||||
| 01 | 09:10 | S 15 | 16.09 | Fair | CLR | 29.1 | 15.2 | 43% | 29 | 76.4 | 0.0 | ||||||
| 01 | 08:50 | S 13 | 16.09 | Fair | CLR | 27.8 | 15.2 | 46% | 28 | 76.4 | 0.0 | ||||||
| 01 | 08:30 | S 9 | 16.09 | Fair | CLR | 26.6 | 15.2 | 50% | 27 | 76.38 | 0.0 | ||||||
| 01 | 08:10 | SE 9 | 16.09 | Fair | CLR | 25.3 | 15.1 | 53% | 26 | 76.38 | 0.0 | ||||||
| 01 | 07:50 | S 9 | 16.09 | Fair | CLR | 24.5 | 14.7 | 54% | 26 | 76.38 | 0.0 | ||||||
| 01 | 07:30 | S 6 | 16.09 | Fair | CLR | 23.8 | 14.7 | 57% | 76.35 | 0.0 | |||||||
| 01 | 07:10 | SE 7 | 16.09 | Fair | CLR | 23.8 | 14.6 | 56% | 76.35 | 0.0 | |||||||
| 01 | 06:50 | SE 7 | 16.09 | Fair | CLR | 23.3 | 14.4 | 27.9 | 22.2 | 57% | 76.33 | 0.0 | |||||
| 01 | 06:30 | SE 6 | 16.09 | Fair | CLR | 23.7 | 14.3 | 56% | 76.3 | 0.0 | |||||||
| 01 | 06:10 | Calm | 16.09 | Fair | CLR | 22.8 | 14.2 | 58% | 76.3 | 0.0 | |||||||
| 01 | 05:50 | Calm | 16.09 | Fair | CLR | 22.9 | 14.1 | 58% | 76.3 | 0.0 | |||||||
| 01 | 05:30 | Calm | 16.09 | Fair | CLR | 25 | 14.4 | 52% | 26 | 76.3 | 0.0 | ||||||
| 01 | 05:10 | S 7 | 16.09 | Fair | CLR | 25.2 | 14.4 | 51% | 26 | 76.28 | 0.0 | ||||||
| 01 | 04:50 | S 7 | 16.09 | Fair | CLR | 26.1 | 14.4 | 49% | 27 | 76.28 | 0.0 | ||||||
| 01 | 04:30 | S 7 | 16.09 | Fair | CLR | 26.1 | 14.2 | 48% | 27 | 76.28 | 0.0 | ||||||
| 01 | 04:10 | S 9 | 16.09 | Fair | CLR | 26 | 14.1 | 48% | 26 | 76.28 | 0.0 | ||||||
| 01 | 03:50 | S 9 | 16.09 | Fair | CLR | 27.2 | 14.1 | 45% | 27 | 76.25 | 0.0 | ||||||
| 01 | 03:30 | S 9 | 16.09 | Fair | CLR | 27.8 | 14.2 | 43% | 28 | 76.25 | 0.0 | ||||||
| 01 | 03:10 | S 13 | 16.09 | Fair | CLR | 27.7 | 14.1 | 43% | 28 | 76.25 | 0.0 | ||||||
| 01 | 02:50 | S 15 | 16.09 | Fair | CLR | 27.8 | 14 | 43% | 28 | 76.25 | 0.0 | ||||||
| 01 | 02:30 | S 13 | 16.09 | Fair | CLR | 27.8 | 13.9 | 43% | 28 | 76.25 | 0.0 | ||||||
| 01 | 02:10 | S 13 | 16.09 | Fair | CLR | 27.7 | 13.8 | 42% | 28 | 76.28 | 0.0 | ||||||
| 01 | 01:50 | S 17 | 16.09 | Fair | CLR | 27.9 | 13.8 | 42% | 28 | 76.28 | 0.0 | ||||||
| 01 | 01:30 | S 17 | 16.09 | Fair | CLR | 27.4 | 13.6 | 43% | 27 | 76.28 | 0.0 | ||||||
| 01 | 01:10 | S 13 | 16.09 | Fair | CLR | 27.4 | 13.4 | 42% | 27 | 76.28 | 0.0 | ||||||
| 01 | 00:50 | S 15 | 16.09 | Fair | CLR | 27.8 | 13.3 | 35.8 | 27.7 | 41% | 28 | 76.28 | 0.0 | ||||
| 01 | 00:30 | S 13 | 16.09 | Fair | CLR | 27.9 | 13.1 | 40% | 28 | 76.28 | 0.0 | ||||||
| 01 | 00:10 | S 15 | 16.09 | Fair | CLR | 28 | 13 | 40% | 28 | 76.25 | 0.0 | ||||||
| 31 | 23:50 | S 15 | 16.09 | Fair | CLR | 28.5 | 12.8 | 38% | 28 | 76.25 | 0.0 | ||||||
| 31 | 23:30 | S 19 | 16.09 | Fair | CLR | 28.7 | 12.6 | 37% | 28 | 76.25 | 0.0 | ||||||
| 31 | 23:10 | S 19 | 16.09 | Fair | CLR | 28.8 | 12.3 | 36% | 28 | 76.23 | 0.0 | ||||||
| 31 | 22:50 | S 17 | 16.09 | Fair | CLR | 28.8 | 12.1 | 36% | 28 | 76.23 | 0.0 | ||||||
| 31 | 22:30 | S 15 | 16.09 | Fair | CLR | 29.2 | 12.8 | 36% | 28 | 76.2 | 0.0 | ||||||
| 31 | 22:10 | S 17 | 16.09 | Fair | CLR | 29.7 | 13.1 | 36% | 29 | 76.17 | 0.0 | ||||||
| 31 | 21:50 | S 17 | 16.09 | Fair | CLR | 30.3 | 13.2 | 35% | 29 | 76.17 | 0.0 | ||||||
| 31 | 21:30 | S 17 | 16.09 | Fair | CLR | 30.9 | 13.2 | 34% | 30 | 76.15 | 0.0 | ||||||
| 31 | 21:10 | S 17 | 16.09 | Fair | CLR | 31.2 | 13.2 | 33% | 30 | 76.1 | 0.0 | ||||||
| 31 | 20:50 | S 19 | 16.09 | Fair | CLR | 31.7 | 13.2 | 32% | 31 | 76.1 | 0.0 | ||||||
| 31 | 20:30 | S 19 | 16.09 | Fair | CLR | 32.2 | 13 | 31% | 31 | 76.07 | 0.0 | ||||||
| 31 | 20:10 | S 19 | 16.09 | Fair | CLR | 33 | 12.8 | 29% | 32 | 76.07 | 0.0 | ||||||
| 31 | 19:50 | S 17 | 16.09 | Fair | CLR | 33.8 | 12.9 | 28% | 33 | 76.07 | 0.0 | ||||||
| 31 | 19:30 | S 22 | 16.09 | Fair | CLR | 34.8 | 13 | 27% | 34 | 76.07 | 0.0 | ||||||
| 31 | 19:10 | S 22 G 31 | 16.09 | Fair | CLR | 35.3 | 13.2 | 26% | 34 | 76.05 | 0.0 | ||||||
| 31 | 18:30 | S 26 | 16.09 | Fair | CLR | 36.3 | 13.6 | 26% | 36 | 76.05 | 0.0 | ||||||
| 31 | 18:10 | S 30 G 41 | 16.09 | Fair | CLR | 36.8 | 14 | 25% | 36 | 76.05 | 0.0 | ||||||
| 31 | 17:50 | S 30 G 37 | 16.09 | Fair | CLR | 37.3 | 14.2 | 25% | 37 | 76.05 | 0.0 | ||||||
| 31 | 17:30 | S 28 G 37 | 16.09 | Partly Cloudy | SCT090 | 37.4 | 14.1 | 25% | 37 | 76.05 | 0.0 | ||||||
| 31 | 17:10 | S 24 | 16.09 | Partly Cloudy | SCT090 | 38 | 14.5 | 25% | 38 | 76.07 | 0.0 | ||||||
| 31 | 16:50 | SE 28 G 37 | 16.09 | Fair | CLR | 37.9 | 14.8 | 25% | 38 | 76.07 | 0.0 | ||||||
| 31 | 16:30 | S 24 G 33 | 16.09 | Partly Cloudy | SCT090 | 37.5 | 14.7 | 26% | 37 | 76.07 | 0.0 | ||||||
| 31 | 16:10 | SE 26 | 16.09 | Partly Cloudy | SCT090 | 38.1 | 15 | 25% | 38 | 76.1 | 0.0 | ||||||
| 31 | 15:50 | S 19 G 26 | 16.09 | Partly Cloudy | SCT095 | 37.3 | 14.4 | 25% | 37 | 76.1 | 0.0 | ||||||
| 31 | 15:30 | S 24 G 39 | 16.09 | Partly Cloudy | SCT095 SCT110 | 37.9 | 14.3 | 24% | 38 | 76.12 | 0.0 | ||||||
| 31 | 15:10 | S 22 | 16.09 | Partly Cloudy | SCT095 | 37.5 | 14.6 | 25% | 37 | 76.15 | 0.0 | ||||||
| 31 | 14:50 | S 22 G 35 | 16.09 | Partly Cloudy | SCT095 | 37.8 | 14.7 | 25% | 38 | 76.15 | 0.0 | ||||||
| 31 | 14:30 | S 20 G 31 | 16.09 | Fair | CLR | 38.1 | 14.9 | 25% | 38 | 76.17 | 0.0 | ||||||
| 31 | 14:10 | SW 17 G 37 | 16.09 | Fair | CLR | 37.9 | 15.1 | 26% | 38 | 76.17 | 0.0 | ||||||
| 31 | 13:50 | S 22 G 39 | 16.09 | Partly Cloudy | SCT085 | 36.8 | 15.4 | 28% | 37 | 76.2 | 0.0 | ||||||
| 31 | 13:30 | SW 22 G 33 | 16.09 | Fair | CLR | 36 | 15.1 | 29% | 36 | 76.2 | 0.0 | ||||||
| 31 | 13:10 | S 20 G 33 | 16.09 | Fair | CLR | 36.6 | 15.5 | 28% | 37 | 76.23 | 0.0 | ||||||
| 31 | 12:50 | SW 17 G 26 | 16.09 | Fair | CLR | 36 | 15.5 | 37 | 24.5 | 29% | 36 | 76.23 | 0.0 | ||||
| 31 | 12:30 | SW 20 G 37 | 16.09 | Fair | CLR | 36.1 | 15.9 | 30% | 36 | 76.25 | 0.0 | ||||||
| 31 | 12:10 | SW 20 G 33 | 16.09 | Fair | CLR | 36 | 15.8 | 30% | 36 | 76.25 | 0.0 | ||||||
| 31 | 11:50 | SW 24 G 35 | 16.09 | Fair | CLR | 35.8 | 15.9 | 30% | 36 | 76.28 | 0.0 | ||||||
| 31 | 11:35 | SW 26 G 39 | 16.09 | Fair | CLR | 35.3 | 16.3 | 32% | 36 | 76.28 | 0.0 | ||||||
| 31 | 11:10 | S 22 G 39 | 16.09 | Fair | CLR | 34.6 | 16.4 | 34% | 35 | 76.28 | 0.0 | ||||||
| 31 | 10:50 | S 22 G 39 | 16.09 | Fair | CLR | 33.6 | 16.8 | 37% | 34 | 76.3 | 0.0 | ||||||
| 31 | 10:30 | SW 26 | 16.09 | Fair | CLR | 33.2 | 16.8 | 37% | 34 | 76.3 | 0.0 | ||||||
| 31 | 10:10 | S 30 | 16.09 | Fair | CLR | 32.2 | 16.5 | 39% | 32 | 76.3 | 0.0 | ||||||
| 31 | 09:50 | S 24 G 37 | 16.09 | Fair | CLR | 31.3 | 16.6 | 41% | 31 | 76.3 | 0.0 | ||||||
| 31 | 09:30 | SW 19 G 28 | 16.09 | Fair | CLR | 30.2 | 16.3 | 43% | 30 | 76.3 | 0.0 | ||||||
| 31 | 09:10 | SW 20 | 16.09 | Fair | CLR | 29.5 | 16.1 | 44% | 30 | 76.33 | 0.0 | ||||||
| 31 | 08:50 | S 19 | 16.09 | Fair | CLR | 29.1 | 16.1 | 45% | 29 | 76.33 | 0.0 | ||||||
| 31 | 08:30 | S 9 | 16.09 | Fair | CLR | 27.1 | 15.7 | 50% | 27 | 76.3 | 0.0 | ||||||
| 31 | 08:10 | SE 9 | 16.09 | Fair | CLR | 25.9 | 15.5 | 53% | 27 | 76.3 | 0.0 | ||||||
| 31 | 07:50 | SE 9 | 16.09 | Fair | CLR | 24.7 | 15.2 | 56% | 26 | 76.25 | 0.0 | ||||||
| 31 | 07:30 | S 9 | 16.09 | Fair | CLR | 26.1 | 15.2 | 51% | 27 | 76.25 | 0.0 | ||||||
| 31 | 07:10 | S 9 | 16.09 | Fair | CLR | 25.8 | 15 | 51% | 26 | 76.23 | 0.0 | ||||||
| 31 | 06:50 | S 13 | 16.09 | Fair | CLR | 26.2 | 14.9 | 28.6 | 26.2 | 50% | 27 | 76.2 | 0.0 | ||||
| 31 | 06:30 | S 13 | 16.09 | Fair | CLR | 26.5 | 14.9 | 49% | 27 | 76.17 | 0.0 | ||||||
| 31 | 06:10 | S 13 | 16.09 | Fair | CLR | 26.6 | 14.9 | 49% | 27 | 76.17 | 0.0 | ||||||
| 31 | 05:50 | S 13 | 16.09 | Fair | CLR | 27 | 14.8 | 47% | 27 | 76.17 | 0.0 | ||||||
| 31 | 05:30 | S 17 | 16.09 | Fair | CLR | 27.3 | 14.7 | 46% | 27 | 76.15 | 0.0 | ||||||
| 31 | 05:10 | S 13 | 16.09 | Fair | CLR | 27.5 | 14.6 | 45% | 28 | 76.15 | 0.0 | ||||||
| 31 | 04:50 | S 15 | 16.09 | Fair | CLR | 27.2 | 14.4 | 45% | 27 | 76.15 | 0.0 | ||||||
| 31 | 04:30 | S 15 | 16.09 | Fair | CLR | 27.3 | 14.1 | 44% | 27 | 76.15 | 0.0 | ||||||
| 31 | 04:10 | S 15 | 16.09 | Fair | CLR | 26.9 | 13.6 | 44% | 27 | 76.15 | 0.0 | ||||||
| 31 | 03:50 | S 11 | 16.09 | Fair | CLR | 26.7 | 13.2 | 43% | 27 | 76.12 | 0.0 | ||||||
| 31 | 03:30 | S 11 | 16.09 | Fair | CLR | 26.6 | 13 | 43% | 27 | 76.12 | 0.0 | ||||||
| 31 | 03:10 | S 11 | 16.09 | Fair | CLR | 26.7 | 13 | 43% | 27 | 76.12 | 0.0 | ||||||
| 31 | 02:50 | S 13 | 16.09 | Fair | CLR | 26.7 | 12.9 | 43% | 27 | 76.12 | 0.0 | ||||||
| 31 | 02:30 | S 13 | 16.09 | Fair | CLR | 26.9 | 13 | 42% | 27 | 76.12 | 0.0 | ||||||
| 31 | 02:10 | S 17 | 16.09 | Fair | CLR | 27.2 | 13.1 | 42% | 27 | 76.12 | 0.0 | ||||||
| 31 | 01:50 | S 19 | 16.09 | Fair | CLR | 27.5 | 13.1 | 41% | 27 | 76.12 | 0.0 | ||||||
| 31 | 01:30 | S 19 | 16.09 | Fair | CLR | 27.9 | 13.2 | 40% | 28 | 76.1 | 0.0 | ||||||
| 31 | 01:10 | S 20 G 31 | 16.09 | Fair | CLR | 28.3 | 13.3 | 40% | 28 | 76.1 | 0.0 | ||||||
| 31 | 00:50 | S 22 | 16.09 | Fair | CLR | 28.7 | 13.3 | 37.5 | 28.6 | 39% | 28 | 76.1 | 0.0 | ||||
| 31 | 00:30 | S 24 | 16.09 | Fair | CLR | 28.9 | 13.4 | 39% | 28 | 76.07 | 0.0 | ||||||
| 31 | 00:10 | S 22 G 33 | 16.09 | Fair | CLR | 29.3 | 13.5 | 38% | 29 | 76.07 | 0.0 | ||||||
| 30 | 23:50 | S 24 | 16.09 | Fair | CLR | 29.6 | 13.9 | 38% | 29 | 76.05 | 0.0 | ||||||
| 30 | 23:30 | S 19 | 16.09 | Fair | CLR | 29.9 | 13.7 | 37% | 29 | 76.05 | 0.0 | ||||||
| 30 | 23:10 | S 20 | 16.09 | Fair | CLR | 30.5 | 13.6 | 36% | 30 | 76.07 | 0.0 | ||||||
| 30 | 22:50 | S 20 | 16.09 | Fair | CLR | 30.6 | 13.6 | 35% | 30 | 76.07 | 0.0 | ||||||
| 30 | 22:30 | S 19 | 16.09 | Fair | CLR | 30.7 | 13.5 | 35% | 30 | 76.05 | 0.0 | ||||||
| 30 | 22:10 | S 17 | 16.09 | Fair | CLR | 30.5 | 13.2 | 35% | 30 | 76.05 | 0.0 | ||||||
| 30 | 21:50 | S 19 | 16.09 | Fair | CLR | 31.2 | 13.2 | 33% | 30 | 76.02 | 0.0 | ||||||
| 30 | 21:30 | S 17 | 16.09 | Fair | CLR | 31.4 | 13.4 | 33% | 31 | 76.02 | 0.0 | ||||||
| 30 | 21:10 | S 17 | 16.09 | Fair | CLR | 31.8 | 13.6 | 33% | 31 | 75.97 | 0.0 | ||||||
| 30 | 20:50 | S 17 | 16.09 | Fair | CLR | 32.5 | 13.7 | 32% | 32 | 75.97 | 0.0 | ||||||
| 30 | 20:30 | S 15 | 16.09 | Fair | CLR | 33.1 | 13.7 | 31% | 32 | 75.95 | 0.0 | ||||||
| 30 | 20:10 | S 17 | 16.09 | Fair | CLR | 34.1 | 13.6 | 29% | 33 | 75.95 | 0.0 | ||||||
| 30 | 19:50 | S 22 | 16.09 | Fair | CLR | 35 | 13.8 | 28% | 34 | 75.92 | 0.0 | ||||||
| 30 | 19:30 | S 20 | 16.09 | Fair | CLR | 36.3 | 13.6 | 26% | 36 | 75.92 | 0.0 | ||||||
| 30 | 19:10 | S 20 G 28 | 16.09 | Fair | CLR | 37.1 | 13.7 | 25% | 36 | 75.92 | 0.0 | ||||||
| 30 | 18:50 | S 24 | 16.09 | Fair | CLR | 37.6 | 13.7 | 39.4 | 36.6 | 24% | 37 | 75.92 | 0.0 | ||||
| 30 | 18:30 | S 22 G 33 | 16.09 | Fair | CLR | 37.8 | 14 | 24% | 37 | 75.92 | 0.0 | ||||||
| 30 | 18:10 | S 22 G 33 | 16.09 | Fair | CLR | 38.2 | 13.9 | 23% | 38 | 75.92 | 0.0 | ||||||
| 30 | 17:50 | S 20 G 33 | 16.09 | Fair | CLR | 38.6 | 13.8 | 23% | 38 | 75.9 | 0.0 | ||||||
| 30 | 17:30 | S 26 G 41 | 16.09 | Fair | CLR | 38.4 | 14 | 23% | 38 | 75.9 | 0.0 | ||||||
| 30 | 17:10 | S 22 G 31 | 16.09 | Fair | CLR | 38.5 | 14.5 | 24% | 38 | 75.9 | 0.0 | ||||||
| 30 | 16:50 | S 31 | 16.09 | Fair | CLR | 38.8 | 14.3 | 23% | 39 | 75.92 | 0.0 | ||||||
| 30 | 16:30 | S 28 G 41 | 16.09 | Fair | CLR | 39.1 | 15 | 24% | 39 | 75.92 | 0.0 | ||||||
| 30 | 16:10 | S 24 G 39 | 16.09 | Fair | CLR | 38.5 | 15 | 25% | 39 | 75.95 | 0.0 | ||||||
| 30 | 15:50 | SW 19 G 37 | 16.09 | Fair | CLR | 38.7 | 15.4 | 25% | 39 | 75.95 | 0.0 | ||||||
| 30 | 15:30 | S 24 G 41 | 16.09 | Fair | CLR | 38.5 | 15.6 | 26% | 39 | 75.97 | 0.0 | ||||||
| 30 | 15:10 | S 22 G 39 | 16.09 | Partly Cloudy | SCT090 | 38.4 | 15.4 | 26% | 39 | 76.02 | 0.0 | ||||||
| 30 | 14:50 | S 28 G 41 | 16.09 | Fair | CLR | 38 | 15.8 | 27% | 38 | 76.02 | 0.0 | ||||||
| 30 | 14:30 | SW 22 G 35 | 16.09 | Fair | CLR | 38 | 16.3 | 28% | 39 | 76.05 | 0.0 | ||||||
| 30 | 14:10 | S 26 G 41 | 16.09 | Fair | CLR | 37.9 | 16.4 | 28% | 39 | 76.05 | 0.0 | ||||||
| 30 | 13:50 | S 28 G 39 | 16.09 | Fair | CLR | 37.6 | 16.6 | 29% | 38 | 76.07 | 0.0 | ||||||
| 30 | 13:30 | SW 28 G 37 | 16.09 | Fair | CLR | 37.3 | 16.6 | 29% | 38 | 76.07 | 0.0 | ||||||
| 30 | 13:10 | SW 22 G 39 | 16.09 | Fair | CLR | 36.8 | 16.7 | 30% | 38 | 76.1 | 0.0 | ||||||
| 30 | 12:50 | S 26 G 37 | 16.09 | Fair | CLR | 36.8 | 16.8 | 37.1 | 25.2 | 31% | 38 | 76.12 | 0.0 | ||||
| 30 | 12:30 | SW 26 G 41 | 16.09 | Fair | CLR | 36.1 | 16.8 | 32% | 37 | 76.15 | 0.0 | ||||||
| 30 | 12:10 | SW 31 G 41 | 16.09 | Fair | CLR | 36.1 | 16.8 | 32% | 37 | 76.15 | 0.0 | ||||||
| 30 | 11:50 | S 22 G 44 | 16.09 | Fair | CLR | 35.3 | 16.8 | 33% | 36 | 76.17 | 0.0 | ||||||
| 30 | 11:30 | SW 31 G 41 | 16.09 | Fair | CLR | 35 | 16.7 | 34% | 35 | 76.17 | 0.0 | ||||||
| 30 | 11:10 | SW 24 G 46 | 16.09 | Fair | CLR | 34.5 | 16.7 | 35% | 35 | 76.17 | 0.0 | ||||||
| 30 | 10:50 | SW 28 G 39 | 16.09 | Fair | CLR | 34.4 | 16.9 | 35% | 35 | 76.17 | 0.0 | ||||||
| 30 | 10:30 | SW 30 G 41 | 16.09 | Fair | CLR | 33.3 | 16.7 | 37% | 34 | 76.17 | 0.0 | ||||||
| 30 | 10:10 | SW 26 G 43 | 16.09 | Fair | CLR | 33 | 16.9 | 38% | 33 | 76.2 | 0.0 | ||||||
| 30 | 09:50 | S 24 G 39 | 16.09 | Fair | CLR | 32.4 | 16.9 | 39% | 33 | 76.17 | 0.0 | ||||||
| 30 | 09:30 | S 20 G 31 | 16.09 | Fair | CLR | 30.6 | 16.7 | 43% | 31 | 76.17 | 0.0 | ||||||
| 30 | 09:10 | S 24 G 33 | 16.09 | Fair | CLR | 29.5 | 16.5 | 45% | 30 | 76.17 | 0.0 | ||||||
| 30 | 08:50 | S 22 G 33 | 16.09 | Fair | CLR | 29 | 16.4 | 47% | 29 | 76.2 | 0.0 | ||||||
| 30 | 08:30 | S 15 | 16.09 | Fair | CLR | 27.5 | 16.3 | 50% | 28 | 76.2 | 0.0 | ||||||
| 30 | 08:10 | S 15 | 16.09 | Fair | CLR | 26.1 | 16 | 54% | 27 | 76.17 | 0.0 | ||||||
| 30 | 07:50 | S 15 | 16.09 | Fair | CLR | 25.4 | 15.9 | 56% | 26 | 76.17 | 0.0 | ||||||
| 30 | 07:30 | SE 13 | 16.09 | Fair | CLR | 25.4 | 15.7 | 55% | 26 | 76.15 | 0.0 | ||||||
| 30 | 07:10 | S 13 | 16.09 | Fair | CLR | 26.9 | 15.8 | 51% | 27 | 76.15 | 0.0 | ||||||
| 30 | 06:50 | S 19 | 16.09 | Fair | CLR | 26.8 | 15.6 | 28.5 | 26.7 | 50% | 27 | 76.15 | 0.0 | ||||
| 30 | 06:30 | S 15 | 16.09 | Fair | CLR | 26.8 | 15.4 | 50% | 27 | 76.12 | 0.0 | ||||||
| 30 | 06:10 | S 15 | 16.09 | Fair | CLR | 26.9 | 15.3 | 49% | 27 | 76.12 | 0.0 | ||||||
| 30 | 05:50 | S 19 | 16.09 | Fair | CLR | 27.1 | 15.2 | 48% | 27 | 76.12 | 0.0 | ||||||
| 30 | 05:30 | S 19 | 16.09 | Fair | CLR | 27.2 | 15.1 | 48% | 27 | 76.12 | 0.0 | ||||||
| 30 | 05:10 | S 19 | 16.09 | Fair | CLR | 27.3 | 15.1 | 47% | 28 | 76.12 | 0.0 | ||||||
| 30 | 04:50 | S 17 | 16.09 | Fair | CLR | 27.2 | 15 | 47% | 27 | 76.1 | 0.0 | ||||||
| 30 | 04:30 | S 17 | 16.09 | Fair | CLR | 27.4 | 14.8 | 46% | 28 | 76.1 | 0.0 | ||||||
| 30 | 04:10 | S 19 | 16.09 | Fair | CLR | 27.7 | 14.7 | 45% | 28 | 76.1 | 0.0 | ||||||
| 30 | 03:50 | S 13 | 16.09 | Fair | CLR | 27.5 | 14.4 | 45% | 28 | 76.1 | 0.0 | ||||||
| 30 | 03:30 | S 13 | 16.09 | Fair | CLR | 28 | 14.2 | 43% | 28 | 76.07 | 0.0 | ||||||
| 30 | 03:10 | S 17 | 16.09 | Fair | CLR | 28.3 | 14 | 42% | 28 | 76.07 | 0.0 | ||||||
| 30 | 02:50 | S 17 | 16.09 | Fair | CLR | 28.1 | 14 | 42% | 28 | 76.1 | 0.0 | ||||||
| 30 | 02:30 | S 19 | 16.09 | Fair | CLR | 27.5 | 14 | 44% | 27 | 76.1 | 0.0 | ||||||
| 30 | 02:10 | S 20 | 16.09 | Fair | CLR | 27.7 | 14 | 43% | 28 | 76.1 | 0.0 | ||||||
| 30 | 01:50 | S 19 | 16.09 | Fair | CLR | 28 | 14 | 42% | 28 | 76.12 | 0.0 | ||||||
| 30 | 01:30 | S 22 | 16.09 | Fair | CLR | 28.2 | 14.1 | 42% | 28 | 76.12 | 0.0 | ||||||
| 30 | 01:10 | S 22 | 16.09 | Fair | CLR | 28.4 | 14.1 | 42% | 28 | 76.12 | 0.0 | ||||||
| 30 | 00:50 | S 22 | 16.09 | Fair | CLR | 28.5 | 14.1 | 37.4 | 28.5 | 41% | 28 | 76.12 | 0.0 | ||||
| 30 | 00:30 | S 20 | 16.09 | Fair | CLR | 28.6 | 14 | 41% | 28 | 76.12 | 0.0 | ||||||
| 30 | 00:10 | S 20 | 16.09 | Fair | CLR | 28.9 | 13.9 | 40% | 28 | 76.12 | 0.0 | ||||||
| 29 | 23:50 | S 19 | 16.09 | Fair | CLR | 29.2 | 13.7 | 39% | 29 | 76.12 | 0.0 | ||||||
| 29 | 23:30 | S 20 | 16.09 | Fair | CLR | 29.5 | 13.5 | 37% | 29 | 76.12 | 0.0 | ||||||
| 29 | 23:10 | S 19 | 16.09 | Fair | CLR | 29.8 | 13.6 | 37% | 29 | 76.12 | 0.0 | ||||||
| 29 | 22:50 | S 20 | 16.09 | Fair | CLR | 30.2 | 13.2 | 35% | 29 | 76.12 | 0.0 | ||||||
| 29 | 22:30 | S 19 | 16.09 | Fair | CLR | 30.6 | 12.9 | 34% | 30 | 76.1 | 0.0 | ||||||
| 29 | 22:10 | S 19 | 16.09 | Fair | CLR | 30.8 | 12.6 | 33% | 30 | 76.1 | 0.0 | ||||||
| 29 | 21:50 | S 15 | 16.09 | Fair | CLR | 30.6 | 12.2 | 32% | 30 | 76.07 | 0.0 | ||||||
| 29 | 21:30 | S 19 | 16.09 | Fair | CLR | 31.2 | 12.3 | 31% | 30 | 76.05 | 0.0 | ||||||
| 29 | 21:10 | S 15 | 16.09 | Fair | CLR | 31.2 | 12.7 | 32% | 30 | 76.05 | 0.0 | ||||||
| 29 | 20:50 | S 13 | 16.09 | Fair | CLR | 32 | 12.7 | 31% | 31 | 76.02 | 0.0 | ||||||
| 29 | 20:30 | S 15 | 16.09 | Fair | CLR | 32.9 | 12.8 | 29% | 32 | 76 | 0.0 | ||||||
| 29 | 20:10 | S 15 | 16.09 | Fair | CLR | 33.9 | 12.9 | 28% | 33 | 75.97 | 0.0 | ||||||
| 29 | 19:50 | S 17 | 16.09 | Fair | CLR | 34.9 | 12.5 | 26% | 34 | 75.97 | 0.0 | ||||||
| 29 | 19:30 | S 20 | 16.09 | Fair | CLR | 36 | 12.4 | 24% | 35 | 75.97 | 0.0 | ||||||
| 29 | 19:10 | S 28 G 37 | 16.09 | Fair | CLR | 36.7 | 12.5 | 23% | 36 | 75.97 | 0.0 | ||||||
| 29 | 18:50 | S 26 G 37 | 16.09 | Fair | CLR | 37.5 | 12.4 | 39.2 | 36.9 | 22% | 36 | 75.97 | 0.0 | ||||
| 29 | 18:30 | S 31 G 39 | 16.09 | Fair | CLR | 37.8 | 12.5 | 22% | 37 | 75.97 | 0.0 | ||||||
| 29 | 18:10 | S 19 | 16.09 | Fair | CLR | 38.1 | 12.8 | 22% | 37 | 75.97 | 0.0 | ||||||
| 29 | 17:50 | S 20 G 33 | 16.09 | Fair | CLR | 38.2 | 12.3 | 21% | 37 | 76 | 0.0 | ||||||
| 29 | 17:30 | S 24 G 33 | 16.09 | Fair | CLR | 38.6 | 12.2 | 20% | 38 | 76 | 0.0 | ||||||
| Date | Time (cdt) | Wind (kph) | Vis. (km) | Weather | Sky Cond. | Air | Dwpt | Max. | Min. | Relative Humidity | Wind Chill (°C) | Heat Index (°C) | altimeter (cm) | sea level (mb) | 1 hr | 3 hr | 6 hr |
| 6 hour | |||||||||||||||||
| Temperature (ºC) | Pressure | Precipitation (cm) | |||||||||||||||